Regional Weather Roundup
Issued by NWS Goodland, KS

Home | Current Version | Previous Version | Text Only | Print | Product List | Glossary On
Versions: 1 2 3 4 5 6 7 8 9 10 11 12 13 14 15 16 17 18 19 20 21 22 23 24 25 26 27 28 29 30 31 32 33 34 35 36 37 38 39 40 41 42 43 44 45 46 47 48 49 50
000
ASUS43 KGLD 250108
RWRGLD

GOODLAND FORECAST AREA HOURLY WEATHER ROUNDUP
NATIONAL WEATHER SERVICE GOODLAND KS
600 PM MST TUE JAN 24 2017

...OFFICIAL OBSERVATIONS...

CITY           SKY/WX    TMP DP  RH WIND       PRES   REMARKS
GOODLAND KS    CLOUDY    25  19  78 NW25G33   29.67R WCI   9
HILL CITY KS   CLOUDY    35  29  78 NW20G25   29.62R
IMPERIAL NEB   CLOUDY    25  19  78 N29G35    29.70R WCI   8
MCCOOK NEB     CLOUDY    30  25  81 NW23G30   29.64R WCI  17
AKRON CO       CLOUDY    20  14  77 N21G31    29.73R WCI   4
BURLINGTON CO  CLOUDY    24  17  74 N29G38    29.69R WCI   7
LIMON CO       CLOUDY    21  17  84 N20G29    29.70R WCI   6
$$

...UNOFFICIAL OBSERVATIONS...

CITY           SKY/WX    TMP DP  RH WIND       PRES   REMARKS
LENORA KS        N/A     32  32 100 NW13G20     N/A
NORTON KS      CLOUDY    34  27  75 W18G25    29.60
SHARON SPRINGS   N/A     27  22  79 NW26G37     N/A  WCI  12
TRENTON NEB      N/A     27  32 100 NW17        N/A  WCI  14
KIT CARSON CO    N/A     25  17  72 MISG        N/A
$$



USA.gov is the U.S. government's official web portal to all federal, state and local government web resources and services.